User: anonymous
Location: Unspecified
(0.0000°N, 0.0000°E)
Time: 07:01:51
(UTC+00:00)
Language:

PROBA 2 - Orbit

View from above orbital plane
View from above orbital plane
View from above satellite
View from above satellite

Ground track
Ground track

The orbit data is extracted from the following two-line orbital elements,

1 36037U 09059B   14245.58242639  .00000090  00000-0  33059-4 0  4995
2 36037 098.2841 077.3819 0012537 226.5244 169.9403 14.52632046256234
Epoch (UTC): 02 September 2014 13:58:41
Eccentricity: 0.0012537
inclination: 98.2841°
perigee height: 708 km
apogee height: 726 km
right ascension of ascending node: 77.3819°
argument of perigee: 226.5244°
revolutions per day: 14.52632046
mean anomaly at epoch: 169.9403°
orbit number at epoch: 25623

The dashed part of the orbit path shows where the satellite is in the earth's shadow,  

DLR